Torna al catalogo

STARLINK-32782

AttivoComunicazioniVLEO
NORAD 62821·PAYLOAD·🇺🇸 United States

Lanciato Jan 24, 2025 da Vandenberg Space Force Base

Loading…

Prossimi Passaggi (prossime 24 ore)

TLE

AggiornatoSource: CelesTrak SupGP

Epoca: Sep 15, 2026, 02:51 UTC

1 62821C 25018R   26258.11923611  .00072447  00000+0  21410-2 0  2583
2 62821  53.1573 146.9928 0001335  79.0803 124.7334 15.34346328    17

Traccia STARLINK-32782 in tempo reale con AllMySat

Download on the App Store